Location: Althorst
(53.6379°N, 10.7715°E)
Time: 13:43:31
(UTC+00:00)

H-2A R/B - Pass Details

Date: 10 December 2019
Orbit: 578 x 655 km, 98.5° (Epoch: 18 January)

Event Time Altitude Azimuth Distance (km) Brightness Sun altitude
Rises 15:54:20 0° 8° (N) 2,818 5.1 -7.9°
Reaches altitude 10° 15:56:45 10° 356° (N) 1,909 4.3 -8.2°
Maximum altitude 16:00:11 26° 299° (WNW) 1,164 3.9 -8.7°
Drops below altitude 10° 16:03:35 10° 243° (WSW) 1,896 6.3 -9.1°
Sets 16:05:58 0° 231° (SW) 2,795 7.3 -9.4°
